Location: 22
(39.7117°N, 89.5929°W)
Time: 18:13:24
(UTC-05:00)

Vanguard 3 - Pass Details

Date: 04 February 2023
Orbit: 508 x 3249 km, 33.4° (Epoch: 30 March)

Event Time Altitude Azimuth Distance (km) Brightness Sun altitude
Rises 18:11:18 0° 235° (SW) 3,785 12.0 -10.0°
Reaches altitude 10° 18:13:34 10° 229° (SW) 3,096 11.2 -10.4°
Maximum altitude 18:21:12 49° 156° (SSE) 2,098 9.1 -11.9°
Enters shadow 18:32:09 16° 91° (E) 4,613 10.3 -13.9°
Drops below altitude 10° 18:34:30 10° 88° (E) 5,263 - -14.4°
Sets 18:39:38 0° 84° (E) 6,642 - -15.3°
